Theta_e
293 293 294 294 294 294 294 294 294 294 294 294 294 293 293 293 293 293 292 292 292 292 292 291 291 291 291 291 291 291 291 291 291 291 291 291 290 290 290 289 289 289 288 288 288 287 287 287 287 287 286 286 286 285 285 285 284 284 283 283 283 282 282 282 282 283 282 282 282 282 282 282 282 282 282 282 282 282 281 281 280 280 279 278 278
290 291 292 292 293 293 294 294 294 294 294 294 294 293 293 293 293 292 292 291 291 291 291 291 291 291 291 291 291 291 291 291 291 291 291 290 290 290 289 289 289 288 288 288 287 287 287 287 287 286 286 286 285 285 285 284 284 283 283 283 282 282 282 282 282 282 282 282 282 282 282 282 282 282 282 281 281 281 280 280 279 279 279 278 278
290 290 290 290 291 291 291 292 293 293 293 294 294 294 293 293 292 292 291 291 291 291 291 291 290 290 290 290 290 290 290 291 290 290 290 290 290 289 289 289 288 288 288 288 287 287 287 287 286 286 286 285 285 285 284 284 283 283 282 282 282 282 282 281 281 281 281 281 281 281 281 281 281 281 281 281 280 280 280 279 279 278 278 277 277
291 290 290 290 290 290 290 290 291 291 291 292 292 292 292 292 291 291 291 290 290 290 290 290 290 290 290 290 290 290 290 290 290 290 290 290 289 289 289 289 288 288 288 287 287 287 286 286 286 286 285 285 285 284 284 283 283 283 282 282 282 282 281 281 281 280 280 280 280 280 281 281 281 280 280 280 280 279 279 279 278 278 277 277 276
290 291 291 291 291 291 291 291 291 290 290 291 291 291 291 291 290 290 290 290 290 290 290 290 290 290 290 290 290 290 290 290 290 289 289 289 289 289 288 288 288 288 287 287 287 286 286 286 286 285 285 284 284 284 283 283 283 282 282 282 282 282 281 281 281 280 280 280 280 280 280 280 280 280 279 279 279 279 278 278 278 277 277 277 277
289 289 290 291 291 291 291 292 291 291 291 291 291 291 291 291 291 290 290 290 290 290 289 289 289 289 290 290 290 290 289 289 289 289 289 288 288 288 288 288 287 287 287 286 286 286 285 285 285 284 284 284 284 283 283 283 282 282 282 282 282 282 281 281 281 280 280 280 280 279 279 279 279 279 279 279 279 278 278 277 277 277 277 277 277
287 288 288 289 289 290 290 291 291 291 291 291 291 291 291 290 290 290 289 289 289 289 289 289 289 289 289 289 289 289 289 289 288 288 288 288 287 287 287 287 287 286 286 286 285 285 285 285 284 284 284 283 283 283 283 282 282 282 282 282 281 281 281 281 281 280 280 280 279 279 279 278 278 278 278 278 277 277 277 277 277 277 277 276 276
286 286 286 286 287 287 287 287 288 288 288 288 288 288 288 288 288 288 288 288 288 288 288 288 289 289 289 289 289 288 288 288 288 287 287 287 287 286 286 286 286 285 285 285 285 285 284 284 284 283 283 283 283 282 282 281 281 281 281 281 280 280 280 280 280 280 279 279 279 278 278 278 277 277 277 277 277 277 277 277 277 276 276 275 274
284 284 284 284 284 285 285 285 285 285 286 286 286 286 286 286 286 286 286 286 287 287 287 287 288 288 288 288 288 288 287 287 287 287 286 286 286 286 285 285 285 285 284 284 284 284 283 283 283 283 282 282 282 281 281 281 280 280 280 280 280 279 279 279 279 278 278 278 278 277 277 277 277 276 276 276 277 277 276 276 275 275 275 274 273
283 283 283 283 283 284 284 284 284 284 284 285 285 285 285 285 285 285 285 285 286 286 286 286 286 286 287 287 287 287 286 286 286 286 286 286 285 285 285 285 284 284 283 283 283 283 282 282 282 282 281 281 281 280 280 280 279 279 279 279 279 278 278 278 278 277 277 277 277 277 276 276 276 276 276 276 276 276 275 274 274 274 273 272 272
283 283 283 283 283 283 283 284 284 284 284 284 284 284 285 285 285 285 285 285 285 285 285 285 285 285 285 285 286 286 286 286 285 285 285 285 285 285 285 284 284 283 283 282 282 282 281 281 281 281 280 280 280 280 279 279 279 279 278 278 278 278 277 277 277 277 276 276 276 276 276 276 276 276 276 276 276 275 274 274 274 273 271 271 271
282 282 282 282 283 283 283 283 283 284 284 284 284 284 284 284 284 285 285 285 285 285 285 285 285 285 284 284 284 284 284 284 285 285 284 284 284 284 284 284 283 283 283 282 281 281 281 280 280 280 280 279 279 279 279 278 278 278 278 277 277 277 277 276 276 276 276 276 276 275 275 275 275 275 275 275 275 274 274 273 272 272 271 270 270
281 281 281 281 282 282 282 282 282 282 282 282 282 282 283 283 283 283 283 283 283 283 283 283 283 283 283 283 283 283 283 283 283 283 283 283 283 283 283 282 282 282 282 281 281 281 280 280 280 279 279 279 279 278 278 278 278 277 277 277 277 276 276 276 276 275 275 275 275 275 275 275 275 275 275 274 274 274 273 272 272 271 271 270 270
280 280 280 280 281 281 281 281 281 280 280 280 281 281 281 281 281 281 281 281 281 281 281 281 281 281 281 281 281 281 281 281 281 281 282 281 281 281 281 281 280 280 280 280 280 280 279 279 279 279 279 278 278 278 278 277 277 277 277 276 276 276 276 275 275 275 275 275 275 275 274 274 274 274 274 274 273 273 272 272 271 271 270 270 270
279 279 280 280 280 280 280 280 280 280 279 279 279 279 279 279 279 279 279 279 279 279 279 279 279 279 279 279 279 279 279 280 280 280 280 280 280 280 279 279 279 279 279 279 279 279 278 278 278 278 278 278 277 277 277 277 276 276 276 276 275 275 275 275 275 274 274 274 274 274 274 274 274 274 274 273 273 272 272 271 271 270 270 269 269
278 279 279 279 279 279 279 279 279 279 279 279 278 278 278 278 278 278 278 278 278 278 278 278 278 278 278 278 278 278 278 278 278 278 278 278 278 279 279 279 278 278 278 278 278 278 278 278 278 277 277 277 277 277 276 276 276 275 275 275 275 274 274 274 274 274 274 274 274 274 274 274 273 273 273 272 272 272 271 270 270 270 269 269 269
278 278 278 278 278 278 278 278 278 278 278 278 278 278 277 277 277 277 277 277 277 277 276 276 276 276 276 276 276 276 277 277 277 277 277 277 277 277 277 277 277 277 277 277 277 277 277 277 277 277 277 277 276 276 276 276 275 275 275 274 274 274 274 274 273 273 273 273 273 273 273 273 273 272 272 272 271 271 271 270 270 270 270 270 270
277 277 277 277 277 277 278 278 278 278 277 277 277 277 277 276 276 276 276 276 276 276 276 276 276 276 275 275 275 275 275 275 275 275 275 275 276 276 276 276 276 276 276 276 276 276 276 276 276 276 276 276 276 275 275 275 275 275 274 274 274 274 274 273 273 273 273 273 273 273 273 273 273 272 272 272 271 271 271 271 270 270 270 270 270
276 277 277 277 277 277 277 277 277 277 277 276 276 276 276 276 276 276 276 275 275 275 275 275 275 275 275 275 275 275 275 274 274 274 274 274 274 274 275 275 275 275 275 275 275 275 275 275 275 275 275 274 274 274 274 274 274 274 274 274 274 274 274 274 273 273 273 273 273 273 272 272 272 271 271 271 271 271 270 270 270 270 270 270 270
276 276 276 276 276 276 276 276 276 276 275 275 275 275 275 275 275 275 275 275 275 275 275 275 274 274 274 274 274 274 274 274 274 274 273 273 273 273 273 273 273 273 274 274 274 274 274 274 274 274 274 273 273 273 273 273 273 273 273 273 273 273 273 273 273 272 272 272 272 272 271 271 271 270 270 270 270 270 270 270 270 270 270 270 270
275 275 275 275 275 275 275 275 275 274 274 274 274 274 274 274 274 274 273 273 273 273 273 273 273 273 273 273 273 273 273 273 273 273 273 273 273 272 273 273 273 272 272 272 272 272 272 272 272 272 272 272 272 272 272 272 272 272 272 272 272 272 272 271 271 271 271 271 271 271 271 271 270 270 270 270 270 270 270 270 269 269 269 269 269
274 274 274 274 274 274 274 274 274 273 273 273 273 273 272 272 272 272 272 272 272 272 272 272 272 272 272 272 272 272 272 272 272 272 272 271 271 271 271 271 271 271 270 270 271 271 271 271 271 271 271 271 271 270 270 270 270 271 271 271 271 271 271 271 271 271 271 271 271 271 271 270 270 270 270 270 270 270 270 270 270 269 269 269 269
274 274 273 273 273 273 273 272 272 272 272 272 272 271 271 271 271 271 271 271 271 271 272 272 272 272 272 271 271 271 271 271 271 271 271 271 271 271 271 271 270 270 270 270 270 270 270 270 270 270 270 270 270 269 269 269 270 270 270 270 271 271 271 271 270 270 271 270 270 270 270 270 270 270 270 270 269 269 269 269 269 269 269 269 269
273 273 272 272 272 272 272 271 271 271 271 271 271 271 271 271 271 271 271 271 271 271 271 271 271 271 271 271 271 271 270 270 271 271 271 271 271 271 271 270 270 270 270 270 270 270 270 269 269 269 269 269 269 269 269 269 269 270 270 270 270 270 270 270 270 270 270 270 270 270 269 269 269 269 269 269 269 269 269 268 268 268 268 268 268
272 272 271 271 271 271 271 270 270 270 270 270 270 270 270 270 270 270 270 270 270 270 270 270 270 270 271 271 271 270 270 270 270 270 270 270 270 270 270 270 270 270 269 269 269 269 268 268 268 268 268 268 268 269 269 269 269 269 269 269 269 269 269 269 269 269 269 269 269 269 269 269 268 268 268 268 268 268 268 268 268 268 267 267 267
271 271 270 270 270 270 270 270 270 270 270 270 270 270 270 270 270 270 270 270 270 270 270 270 270 270 270 270 270 270 270 270 269 269 269 269 269 269 269 269 269 269 269 268 268 268 268 267 267 267 267 267 267 267 268 268 268 268 268 269 269 269 268 268 268 268 268 268 268 268 268 268 268 268 267 267 267 267 267 267 267 267 267 267 267
270 270 269 269 269 269 269 270 270 269 269 269 269 269 269 270 270 269 269 269 269 269 269 269 269 269 269 269 269 269 269 269 269 269 269 269 269 269 269 268 268 268 268 268 268 267 267 267 267 267 267 267 267 267 267 267 267 267 267 267 267 267 267 267 267 267 267 267 267 267 267 267 267 267 267 266 266 266 266 266 266 266 266 266 266
269 269 269 269 269 269 269 269 269 269 269 269 269 269 269 269 269 269 269 269 269 269 269 269 268 268 268 268 268 269 269 269 269 269 269 269 268 268 268 268 268 267 268 268 267 267 267 267 267 267 266 266 266 266 266 266 266 266 266 266 266 266 266 266 266 266 266 266 266 266 266 266 266 266 266 265 265 265 265 265 264 264 264 264 264
269 269 269 269 269 269 269 269 269 269 269 269 269 269 269 269 268 268 268 268 268 268 268 268 268 268 267 267 268 268 268 269 269 269 268 268 267 267 266 266 266 266 267 267 267 267 266 266 266 266 266 266 266 266 266 266 266 266 266 266 266 266 266 266 266 266 265 265 265 265 265 265 265 265 265 265 265 264 264 264 264 264 263 263 263
269 269 268 268 269 269 268 268 268 268 269 269 268 268 268 268 268 268 268 268 268 268 268 268 267 267 266 266 266 267 267 268 268 268 268 267 266 266 266 266 266 266 266 266 266 265 265 265 265 265 265 265 265 265 265 265 265 265 265 265 265 265 265 266 265 265 265 265 265 265 265 264 264 264 264 264 264 264 264 263 263 263 263 263 263
268 268 268 268 268 268 268 268 268 268 268 268 268 268 268 267 268 268 268 268 268 267 267 267 267 266 265 266 266 266 267 267 267 267 267 266 266 266 266 266 265 265 265 265 265 265 265 265 265 265 265 265 265 265 265 265 265 265 265 265 265 265 265 265 265 265 265 265 265 264 264 264 264 263 263 263 263 263 263 263 263 262 262 262 262
268 268 268 268 268 268 268 268 268 268 267 267 267 268 268 268 268 267 267 267 267 267 267 267 266 266 266 266 266 266 266 266 266 266 267 267 267 266 266 265 265 265 265 265 265 265 264 264 264 264 264 264 264 264 264 264 264 264 264 264 264 264 264 264 264 264 264 264 264 264 263 263 263 262 262 262 261 261 261 261 261 261 261 261 261
268 268 268 268 268 268 268 267 267 267 267 267 267 267 267 268 268 268 268 267 267 267 267 266 266 266 266 266 266 266 266 266 266 266 266 266 265 265 264 264 264 265 265 264 264 264 264 263 263 263 263 263 263 263 263 262 262 262 262 262 262 262 262 262 262 262 262 262 262 262 262 262 262 261 261 261 260 260 260 260 260 260 260 260 260
267 267 267 268 268 268 267 267 267 267 267 267 267 267 267 267 267 268 268 268 267 267 266 266 266 266 266 266 266 266 266 266 265 266 266 265 264 263 264 264 264 264 264 263 263 263 263 262 262 262 262 262 262 262 262 262 261 261 261 261 261 261 261 261 261 261 261 261 261 261 260 260 260 260 260 259 259 259 259 258 258 258 258 259 259
267 267 267 267 267 267 267 267 267 267 266 266 267 267 267 267 267 267 267 267 267 267 267 266 266 266 266 266 266 266 266 266 265 265 265 264 263 264 264 264 263 263 263 263 262 262 262 262 262 261 261 261 261 261 261 261 261 260 260 260 260 260 260 260 260 260 260 259 259 259 259 259 258 258 258 258 258 257 257 257 257 257 257 257 257
267 267 267 267 267 267 267 266 266 266 266 266 266 267 267 267 267 266 266 266 266 267 267 266 266 266 266 266 265 265 265 265 265 265 264 264 263 264 264 263 263 263 262 262 262 261 261 261 261 261 260 260 260 260 260 260 260 260 259 259 259 259 259 258 258 258 258 258 258 258 257 257 257 257 256 256 256 255 255 255 255 255 255 255 255
267 267 267 266 266 266 266 266 266 266 266 266 267 266 266 266 266 266 266 266 266 266 266 266 266 266 266 265 265 265 265 265 265 264 264 264 264 264 263 262 262 262 261 261 260 260 260 260 260 260 259 259 259 259 259 259 259 259 258 258 258 258 257 257 257 256 256 256 256 256 256 255 255 255 255 254 254 254 254 253 253 253 253 253 254
266 266 266 266 266 267 267 267 266 266 266 266 266 266 266 266 265 265 265 265 266 266 266 266 266 266 266 265 265 265 265 265 265 264 264 264 263 263 262 261 261 260 260 259 259 259 259 259 259 259 259 258 258 258 258 258 257 257 257 257 257 256 256 256 255 255 255 254 254 254 254 254 253 253 253 253 253 253 252 252 252 252 252 252 252
266 266 266 266 267 267 267 266 266 266 266 266 266 265 265 265 265 265 265 265 265 265 265 265 265 265 265 265 265 265 265 265 265 264 264 263 262 262 261 260 260 259 259 259 258 258 258 258 258 258 258 257 257 257 257 257 256 256 256 256 255 255 255 254 254 254 253 253 253 253 252 252 252 252 252 252 252 252 251 251 251 251 251 251 251
266 266 266 266 267 267 266 266 266 266 266 265 265 265 265 265 265 265 265 265 265 265 265 265 265 265 265 265 265 264 264 264 264 264 263 263 262 261 260 260 259 259 258 258 258 258 257 257 257 257 257 256 256 256 256 255 255 255 255 255 254 254 254 253 253 253 252 252 252 252 251 251 251 251 251 251 251 251 251 251 251 251 251 251 251
266 266 266 266 266 266 266 266 266 266 265 265 265 265 265 265 265 265 265 265 265 265 265 265 265 265 264 264 264 264 264 264 263 263 262 262 261 260 259 259 258 258 258 258 257 257 257 256 256 256 256 256 255 255 255 254 254 254 254 254 253 253 253 253 252 252 252 251 251 251 251 251 251 251 251 251 251 251 251 251 250 250 250 250 250
266 266 266 266 266 266 266 266 266 265 265 265 265 265 265 265 265 265 265 265 265 265 265 265 264 264 264 264 264 264 263 263 263 262 262 261 260 259 258 258 257 257 257 257 256 256 256 256 255 255 255 255 254 254 254 253 253 253 253 253 253 253 253 252 252 252 251 251 250 250 250 250 250 250 250 250 250 250 250 250 250 250 250 250 250
266 266 266 266 266 266 266 266 266 265 265 265 265 265 265 265 265 265 265 265 265 264 264 264 264 264 264 264 264 263 263 263 262 262 261 260 259 258 258 257 257 256 256 256 256 255 255 255 255 254 254 254 254 253 253 253 253 253 252 252 252 252 252 252 251 251 251 250 250 250 250 250 250 250 250 250 250 250 250 250 250 250 250 250 250
266 266 266 266 266 266 266 266 266 266 265 265 265 265 265 265 265 265 264 264 264 264 264 264 264 264 264 264 263 263 263 262 262 261 260 260 259 258 257 256 256 256 255 255 255 255 254 254 254 254 254 253 253 253 253 253 253 252 252 252 252 252 252 252 251 251 250 250 250 250 249 249 249 249 249 249 249 250 250 250 250 250 250 250 250
266 266 266 266 266 266 266 266 266 265 265 265 265 265 265 265 265 264 264 264 264 264 264 264 264 264 264 263 263 263 263 262 261 261 260 259 258 258 257 256 255 255 255 254 254 254 254 254 254 253 253 253 253 253 253 253 252 252 252 252 252 252 251 251 251 251 250 250 250 249 249 249 249 249 249 249 249 249 249 250 250 250 250 249 249
266 266 266 266 266 266 266 266 266 265 265 265 265 265 265 264 264 264 264 264 264 264 264 264 264 263 263 263 263 263 262 262 261 260 259 259 258 257 256 255 255 254 254 254 254 254 254 254 253 253 253 253 253 253 253 253 252 252 252 252 252 251 251 251 251 250 250 250 249 249 249 249 249 249 249 249 249 249 249 249 249 249 249 249 249
265 266 266 266 266 266 266 266 266 265 265 265 264 265 265 264 264 264 264 264 264 264 264 264 264 263 263 263 263 262 262 262 261 260 259 259 258 257 256 255 255 254 254 254 254 253 253 253 254 254 254 253 253 253 253 253 252 252 252 252 251 251 250 250 250 250 249 249 249 249 249 249 249 249 249 249 249 249 249 249 249 249 249 249 248
265 266 266 266 266 266 266 266 266 265 265 264 264 264 264 264 264 264 264 264 264 264 264 264 264 263 263 263 263 262 262 262 261 260 259 258 258 257 256 255 254 254 253 253 253 253 253 254 254 254 254 254 253 253 253 253 252 252 252 251 251 250 250 250 250 249 249 249 249 249 249 249 249 249 249 249 248 248 248 248 248 248 248 248 248
265 265 266 266 266 266 266 266 266 265 265 265 264 264 264 264 264 264 264 264 264 264 264 264 263 263 263 263 263 262 262 261 261 260 259 258 258 257 256 255 254 253 253 253 253 253 253 254 254 254 254 254 253 253 253 252 252 252 251 251 250 250 250 249 249 249 249 249 248 248 248 248 248 248 248 248 248 248 248 248 248 248 248 248 248
265 265 265 266 266 266 266 265 265 265 265 265 264 264 264 264 264 264 264 264 264 264 264 263 263 263 263 263 263 262 262 261 260 260 259 258 257 257 256 255 254 254 253 253 253 253 254 254 254 254 254 253 253 253 253 252 252 252 251 251 250 250 249 249 249 249 249 249 248 248 248 248 248 248 248 248 248 248 248 248 248 248 248 248 247
265 265 265 265 266 265 265 265 265 265 265 265 264 264 264 264 264 264 264 264 264 263 263 263 263 263 263 263 262 262 262 261 260 260 259 258 257 256 256 255 255 254 254 253 253 254 254 254 254 254 254 253 253 253 253 252 252 252 251 251 250 250 250 249 249 249 249 249 249 248 248 248 248 248 248 248 248 247 247 247 247 247 247 247 247
Wind_Speed
12 11 11 11 12 12 13 13 14 15 15 15 15 14 13 14 15 16 17 17 17 19 20 22 23 25 26 28 29 30 30 30 30 30 31 32 33 33 34 34 35 36 36 37 38 38 39 39 40 40 40 41 41 42 42 42 43 44 45 46 47 46 46 45 47 47 44 42 40 37 37 37 35 34 33 33 33 33 32 31 29 28 28 27 27
17 15 12 11 10 11 12 13 14 16 16 17 16 15 15 15 16 16 18 18 18 20 22 23 25 26 28 29 30 31 31 31 30 30 31 32 32 32 33 34 35 36 36 37 38 37 38 38 39 38 39 40 41 41 42 42 42 43 44 45 45 45 45 45 46 46 46 44 42 40 39 38 37 36 36 35 34 34 33 32 30 29 29 28 28
19 17 15 14 12 11 10 10 11 12 14 15 16 17 16 16 17 18 19 19 20 22 24 25 27 29 30 31 31 31 31 30 30 30 31 31 31 32 32 33 33 34 35 36 36 36 37 37 37 37 38 39 40 41 41 41 42 43 43 43 43 43 43 43 44 45 45 44 43 41 40 39 39 38 37 36 35 34 34 33 31 30 29 29 29
20 18 17 16 15 13 12 11 10 10 11 11 12 13 14 15 17 19 20 22 23 25 26 27 29 30 31 32 31 31 30 29 29 29 30 30 30 30 31 31 32 33 34 34 34 35 36 36 36 36 37 39 39 40 40 41 41 41 41 41 41 41 41 40 41 42 42 42 42 42 41 40 40 39 37 36 36 35 35 33 32 31 30 30 30
22 20 19 18 18 17 16 15 15 14 14 14 14 14 15 17 19 21 23 25 26 27 28 29 30 31 32 31 31 30 28 27 26 27 27 27 27 28 29 30 31 32 32 33 33 34 35 36 35 36 37 38 39 39 39 39 39 39 39 39 39 39 38 39 39 39 40 42 42 42 42 41 41 40 38 37 37 36 35 34 33 32 31 32 32
25 23 21 21 20 20 20 20 20 20 20 20 20 21 21 22 24 25 26 27 28 28 28 28 28 29 29 28 27 26 25 23 23 23 23 24 25 26 27 29 30 31 32 32 33 34 35 35 35 36 37 37 37 38 37 37 38 37 37 37 36 36 36 37 37 38 39 41 42 43 43 43 42 41 40 39 37 37 35 34 34 33 33 33 33
27 25 23 22 21 20 20 21 21 22 23 23 24 24 25 25 26 26 26 26 26 26 25 25 24 24 24 24 24 23 22 21 21 21 22 22 23 25 26 27 28 29 31 32 32 33 34 34 35 36 36 36 36 36 36 36 37 36 36 35 35 35 35 35 35 37 38 39 41 43 43 43 42 42 41 39 38 37 36 35 36 35 34 33 33
27 25 24 22 21 19 18 18 18 18 19 20 21 21 21 22 22 21 21 22 22 22 21 21 21 22 22 22 22 22 22 21 21 21 21 21 22 24 24 25 27 28 29 31 32 32 33 33 34 35 35 35 35 35 35 35 35 35 35 34 34 34 34 34 35 36 37 38 39 41 42 42 42 42 41 39 39 39 36 35 36 35 33 33 35
27 25 24 22 20 19 18 17 16 16 16 16 16 16 16 16 16 17 17 17 18 18 19 19 20 21 21 22 22 22 22 21 21 21 21 21 22 22 23 24 25 26 28 29 30 31 32 33 33 33 34 34 33 33 34 33 34 34 33 33 33 33 33 34 35 35 36 37 38 39 41 42 42 41 41 41 40 38 35 33 34 34 33 34 35
27 26 25 23 21 20 19 18 17 17 16 16 15 15 16 16 16 17 17 18 18 19 19 20 20 20 21 21 21 21 21 21 21 21 21 22 22 23 23 24 24 25 26 27 29 30 30 31 31 31 32 32 32 32 32 32 32 31 31 31 31 32 32 33 34 34 35 36 37 38 40 41 42 40 40 41 39 35 32 31 33 34 33 35 36
27 27 26 24 23 22 21 21 20 20 19 19 19 19 19 19 19 20 20 20 21 22 22 22 23 23 23 23 22 22 22 22 21 21 21 21 22 22 23 23 23 24 25 25 26 26 27 28 28 28 29 29 29 30 30 30 30 29 30 30 30 30 30 31 32 33 34 35 36 37 39 40 40 39 38 38 36 33 31 31 33 33 33 34 36
27 26 26 25 24 23 23 22 22 22 22 22 22 21 21 21 21 21 21 22 22 22 23 23 24 24 24 24 24 24 23 23 22 22 21 21 21 21 21 21 22 22 22 23 23 23 23 24 24 25 26 26 26 27 27 27 28 28 28 28 29 30 30 30 31 32 33 34 35 37 38 38 38 37 36 34 32 30 31 32 32 33 33 34 36
26 25 24 24 23 23 22 22 22 21 21 21 21 20 20 20 20 20 20 21 21 21 22 22 22 23 23 23 23 23 22 22 22 21 21 20 19 19 19 20 20 20 20 20 20 20 21 21 22 23 23 23 24 24 25 25 26 26 27 27 28 29 29 30 30 31 32 33 34 36 36 35 35 34 31 29 29 29 31 32 32 33 34 35 36
25 24 23 22 22 21 21 21 20 20 20 20 20 20 20 20 20 20 20 20 20 20 20 20 20 20 20 20 20 20 20 20 19 19 19 17 16 16 17 17 17 17 17 17 17 18 18 19 19 20 20 20 21 21 22 22 23 24 25 27 28 29 29 29 30 32 33 34 35 35 34 32 32 30 28 27 29 30 31 32 33 33 35 36 36
24 23 22 22 21 21 21 20 20 20 20 20 20 21 21 21 20 20 19 19 19 18 18 18 18 18 18 17 17 17 17 17 17 17 16 16 17 18 18 17 17 17 17 17 17 17 17 18 18 18 18 18 18 18 18 19 20 21 23 25 26 27 28 28 28 30 32 33 34 32 30 29 29 28 27 28 30 32 32 32 33 34 36 37 36
23 23 23 22 22 22 22 22 22 22 22 22 22 21 21 20 19 19 18 18 17 17 16 16 16 15 15 15 15 15 15 14 15 15 14 15 18 19 19 19 19 18 18 19 19 19 19 19 20 20 20 19 18 18 18 18 19 20 21 23 24 25 27 26 26 26 28 30 31 30 28 28 28 29 30 31 32 32 30 32 33 34 35 35 35
24 24 23 23 23 23 23 23 24 24 24 24 23 22 21 20 19 18 17 16 16 15 15 14 14 13 13 13 13 13 13 13 13 13 12 15 18 18 19 20 19 19 19 19 19 19 20 21 21 21 22 21 21 21 21 22 23 23 24 24 25 26 27 26 25 26 27 28 29 29 29 29 30 31 30 30 30 28 28 31 32 31 31 33 34
25 25 24 24 24 24 24 25 25 25 25 24 24 23 21 20 19 18 18 17 16 16 15 14 14 14 13 13 12 12 12 12 12 12 12 14 17 18 18 19 19 20 20 20 19 19 19 20 20 20 21 20 20 21 22 24 26 26 27 27 28 30 30 28 28 29 29 29 30 30 30 30 29 29 28 28 27 25 27 31 30 29 32 35 35
26 26 26 26 26 26 26 26 26 25 25 24 24 23 22 21 20 19 19 19 18 17 16 16 16 15 15 15 14 14 14 13 13 13 13 14 16 18 18 19 19 20 20 20 21 21 21 21 21 21 21 20 20 20 20 21 24 25 26 27 30 31 30 29 30 31 31 32 33 34 34 33 32 32 32 31 30 29 30 32 31 31 34 36 36
26 27 27 27 27 27 27 26 26 25 25 24 23 23 22 21 20 19 19 19 18 18 17 16 16 16 16 16 16 16 16 15 15 15 15 16 17 19 20 20 20 20 21 22 22 23 23 23 23 23 24 23 23 24 23 23 24 26 27 29 32 32 31 30 31 31 32 33 34 33 33 32 31 30 30 31 31 32 33 35 36 36 37 37 37
29 28 28 28 27 27 26 26 25 24 23 22 21 21 20 19 18 17 17 17 17 16 16 16 16 16 16 16 17 17 17 17 17 17 17 18 18 20 22 22 22 23 24 24 25 25 25 25 25 25 26 26 26 26 26 25 25 25 27 30 31 31 31 31 30 29 30 31 31 31 31 30 30 30 30 30 30 31 32 34 36 38 39 40 40
31 30 30 29 28 26 25 23 22 21 20 20 19 18 17 17 16 16 15 15 15 15 15 15 15 15 15 15 16 17 17 17 17 17 18 18 18 19 21 22 22 23 24 25 25 25 25 26 26 26 26 26 25 25 24 24 23 24 26 28 29 29 29 28 27 27 28 30 30 31 32 31 31 31 30 30 30 30 30 32 33 35 37 38 39
31 31 30 28 26 24 22 20 19 18 17 17 17 16 16 15 15 15 15 15 15 15 15 16 15 15 15 15 16 17 18 18 18 18 18 19 18 19 20 21 21 22 24 24 25 25 25 25 25 24 24 23 23 21 20 20 20 22 23 24 27 28 27 26 24 24 25 26 28 30 32 32 33 33 33 33 32 31 31 31 32 33 34 36 36
31 29 27 25 23 21 19 18 17 17 16 16 16 15 15 15 15 15 15 15 15 15 15 16 16 16 16 15 15 16 17 18 18 18 19 19 19 19 20 20 21 22 23 24 24 24 24 24 23 22 21 19 17 17 17 19 20 22 22 24 26 28 27 26 25 25 24 24 25 27 28 29 29 29 30 31 31 31 31 31 30 31 32 34 35
29 26 23 21 20 18 17 16 16 16 16 16 16 15 16 15 15 15 15 15 16 16 16 16 16 16 16 16 16 16 16 17 17 18 19 19 19 19 20 20 21 22 22 23 23 23 22 21 21 20 18 17 17 18 20 22 23 25 26 27 29 29 29 29 28 27 27 27 26 26 26 25 24 23 24 25 27 28 29 29 29 29 30 31 32
25 22 20 19 18 17 16 16 15 16 16 16 16 16 16 16 16 16 16 16 16 16 16 16 16 16 16 16 16 16 16 16 16 17 18 19 19 19 20 20 21 21 22 22 22 22 21 20 20 20 19 20 21 23 24 25 26 28 29 29 30 30 30 31 30 30 31 31 31 31 31 30 29 29 29 30 30 31 31 31 32 33 34 34 35
22 20 18 18 17 16 16 16 15 15 15 16 16 16 16 17 17 16 16 16 16 15 15 15 15 15 15 15 16 16 16 17 17 18 18 19 19 19 20 20 20 21 22 21 21 21 21 21 21 21 21 21 22 22 23 24 25 26 28 30 32 32 32 33 33 34 34 35 35 36 35 35 35 35 35 34 34 34 32 31 32 33 33 34 37
19 18 17 17 16 16 16 16 16 16 15 15 15 15 16 16 16 16 15 14 14 13 14 14 14 15 15 16 17 17 18 18 18 19 19 19 19 19 19 19 20 21 21 21 22 22 22 22 22 22 22 22 22 22 22 22 22 23 25 27 29 31 32 33 33 34 34 35 35 35 34 34 34 34 33 33 33 32 30 29 29 30 29 29 33
18 17 17 17 17 17 16 16 17 16 16 15 15 15 15 15 14 14 13 13 13 13 13 14 14 15 16 17 17 19 20 19 19 19 19 18 17 17 17 19 20 21 23 24 24 25 25 25 24 24 23 23 23 22 22 22 22 23 23 25 26 28 29 30 31 31 31 31 32 32 31 31 31 30 30 31 31 30 29 28 29 29 28 28 31
17 16 16 17 17 17 16 16 16 16 16 15 14 14 13 13 13 13 12 12 13 13 14 14 14 14 15 16 18 20 21 21 21 20 20 19 17 17 19 21 22 23 24 25 24 25 26 27 27 26 25 25 24 24 23 23 23 23 23 24 26 27 28 29 30 31 31 31 31 31 31 31 31 30 30 31 32 31 30 30 30 30 30 31 32
17 16 16 16 17 16 16 16 15 15 15 15 14 13 11 11 12 13 14 14 13 14 14 14 13 13 14 17 20 21 22 23 23 23 22 22 22 23 24 24 24 25 26 25 25 25 26 27 27 28 27 27 26 26 26 25 25 25 25 25 26 27 28 29 30 31 32 32 32 32 32 32 32 32 31 31 31 31 30 30 30 30 31 32 33
17 16 16 16 16 16 16 16 15 14 14 13 14 13 12 11 11 11 12 13 14 15 15 15 16 17 17 19 21 22 23 23 24 24 24 25 25 25 24 24 25 26 27 26 25 26 26 27 27 27 27 27 26 26 26 26 26 26 26 25 26 27 27 28 29 30 31 32 32 33 33 33 33 32 31 31 30 30 29 29 29 29 30 31 32
17 17 17 17 16 16 16 15 15 14 13 13 13 14 14 14 14 13 12 12 13 14 15 16 17 18 18 19 20 21 22 23 24 25 26 25 23 22 21 23 25 28 27 26 25 25 25 26 26 26 26 26 26 25 25 25 25 26 26 26 26 26 27 28 28 29 30 31 32 32 33 33 33 32 32 30 29 29 28 28 27 27 28 29 30
17 18 18 18 17 16 15 14 14 13 13 13 14 14 15 16 16 17 16 15 14 14 14 15 16 17 18 18 19 20 21 22 23 24 24 21 19 20 23 24 26 28 28 27 27 27 26 27 27 27 28 28 27 27 27 26 26 26 26 26 27 27 28 29 29 30 30 31 31 32 32 32 32 32 32 32 31 30 30 29 28 28 28 29 30
18 18 18 18 18 16 15 14 14 13 13 14 15 15 16 17 17 18 18 18 18 17 16 16 16 17 17 18 19 20 21 22 22 23 21 19 20 24 26 26 26 28 28 28 29 29 29 29 29 29 29 29 29 28 28 27 27 26 26 26 26 26 26 27 27 28 29 29 30 31 31 31 31 31 31 31 31 31 30 30 29 29 29 30 31
18 18 17 17 16 15 14 14 14 14 14 15 16 17 17 18 18 19 19 19 19 19 19 18 18 18 19 19 20 21 22 22 22 22 22 21 23 26 26 25 26 27 27 27 28 27 27 27 27 27 27 27 27 27 27 26 26 25 24 24 24 24 24 24 24 24 25 25 26 27 27 27 28 27 28 28 27 26 26 26 26 26 26 27 28
18 17 16 15 14 14 14 14 14 15 16 16 17 17 18 18 19 19 19 19 19 19 19 19 19 19 19 19 20 21 22 23 23 24 24 24 26 27 26 25 25 25 24 24 24 23 23 23 24 24 24 24 24 24 23 23 23 22 22 22 22 22 22 22 22 22 22 21 21 22 22 23 23 23 24 24 23 23 22 21 21 21 22 22 23
17 16 14 14 13 13 14 14 15 16 16 17 17 18 18 18 19 19 19 19 19 19 19 19 20 20 20 20 21 22 23 24 24 25 25 25 25 25 24 23 23 22 21 21 21 20 20 20 21 21 22 22 21 21 20 20 19 19 19 20 20 19 19 19 19 19 19 19 18 18 19 19 19 19 20 20 20 20 19 19 18 19 19 19 20
16 14 14 14 14 14 15 15 15 16 16 16 17 18 18 18 18 19 19 19 19 19 19 19 19 20 20 21 22 22 23 24 25 25 25 24 23 23 22 21 20 20 19 19 19 18 18 18 18 18 18 18 18 17 17 17 17 17 17 17 17 17 17 17 17 17 17 17 17 16 16 16 16 16 16 17 17 17 17 17 17 17 18 18 18
15 14 14 14 14 15 15 15 15 16 16 16 17 18 18 18 18 18 19 19 19 19 19 19 19 20 20 21 22 22 24 25 25 25 25 24 22 21 20 19 19 18 18 17 17 16 15 15 15 15 15 15 15 15 15 15 15 15 15 16 16 16 16 16 16 16 15 15 14 14 14 14 13 14 15 15 16 16 16 17 17 17 17 17 17
15 14 14 14 15 15 15 15 15 16 16 17 18 18 18 18 18 18 19 19 19 19 19 19 19 20 21 21 22 22 24 24 24 25 24 23 22 20 19 18 17 17 16 15 14 14 13 13 13 13 13 13 13 13 13 14 14 14 15 15 15 15 15 15 14 14 13 13 13 12 12 12 13 14 15 16 16 16 17 17 17 17 16 16 17
15 15 14 15 15 15 15 15 16 16 17 17 18 18 18 18 18 18 19 19 19 19 19 19 20 20 21 21 22 23 23 23 23 23 22 21 20 19 17 16 15 14 13 13 12 12 12 12 12 12 12 12 12 13 13 13 14 14 14 15 14 14 14 13 13 13 13 13 13 13 13 13 14 15 16 17 17 17 17 17 16 15 15 16 16
16 15 15 16 16 16 16 16 17 17 18 18 18 18 18 18 18 18 18 18 18 19 19 20 20 20 21 21 22 23 23 23 22 22 21 19 18 17 15 14 13 12 11 11 11 11 11 11 11 11 11 11 12 12 13 13 14 14 14 14 14 14 14 14 14 14 14 14 14 14 14 14 15 15 16 16 16 16 15 15 15 15 15 16 16
16 16 16 16 16 17 17 17 18 18 18 18 18 18 18 18 18 18 18 18 18 19 19 20 20 20 21 21 22 23 23 22 22 20 19 18 17 16 15 13 12 11 10 10 10 10 11 11 11 11 11 12 12 13 13 13 13 13 14 14 14 14 14 14 13 13 14 15 15 14 14 13 13 13 13 13 13 13 13 13 14 14 15 16 16
16 17 17 17 17 18 17 18 18 18 19 19 18 18 18 18 18 18 18 18 18 19 19 20 20 20 21 21 22 22 23 22 21 19 18 17 16 15 14 13 11 10 10 10 10 10 10 10 11 11 11 12 12 13 13 13 13 13 14 14 13 13 12 12 12 12 12 12 12 11 10 10 9 10 10 10 11 12 13 13 14 15 16 17 18
16 17 17 17 18 18 18 18 18 19 19 19 18 18 18 18 18 18 18 18 18 19 19 20 20 20 21 21 22 22 22 21 20 19 17 16 15 14 13 12 10 10 10 10 10 10 10 10 11 11 12 12 12 12 12 12 12 13 13 12 11 10 10 10 9 9 8 8 8 8 8 9 9 10 10 11 12 13 13 14 15 16 17 18 18
17 17 17 18 19 19 18 18 19 19 19 19 19 19 18 18 18 18 18 18 18 19 19 19 20 20 21 21 22 22 21 21 20 18 17 15 14 13 12 11 10 10 10 10 10 10 10 10 11 11 11 11 11 11 11 11 11 11 11 10 9 9 8 8 7 7 6 6 7 8 9 10 10 11 12 13 13 14 14 15 15 16 17 18 18
17 17 18 18 19 19 19 19 19 19 19 19 19 19 19 18 18 18 18 18 18 19 19 19 19 20 20 21 21 21 21 20 19 18 16 15 14 12 12 11 10 9 9 9 10 10 10 11 11 10 10 10 10 10 10 10 10 9 9 8 8 8 7 7 7 7 7 8 9 10 11 12 13 13 14 14 15 15 15 15 16 16 16 17 18
17 17 18 18 19 19 19 19 20 20 20 20 20 20 19 19 19 18 18 19 19 19 19 19 19 19 20 20 21 21 21 20 19 18 16 15 13 12 11 10 9 9 9 10 10 10 10 10 10 9 9 9 9 8 8 8 8 7 7 7 7 7 7 7 7 8 9 10 11 12 12 13 14 14 15 15 16 16 16 16 16 16 17 18 19
17 17 18 18 18 19 19 20 20 20 20 21 21 20 20 20 20 19 19 19 19 19 19 19 19 19 19 20 20 20 20 19 18 18 16 14 13 11 10 10 9 9 10 10 10 10 9 9 9 8 8 8 8 7 7 6 6 6 6 6 6 6 6 7 8 9 10 11 11 12 12 13 13 13 13 14 14 15 16 16 17 17 18 19 19
17 17 18 18 18 19 19 20 20 20 20 21 21 21 21 21 20 20 20 20 19 19 19 19 19 19 19 19 20 20 19 19 18 17 16 14 12 11 10 10 10 10 10 10 9 9 9 8 7 7 7 7 6 6 5 5 5 4 4 4 5 5 6 7 8 9 10 11 11 11 12 12 12 12 12 13 13 14 14 15 16 17 18 19 19
Wind_Direction
357 338 320 306 296 291 285 281 278 275 272 268 264 261 259 260 262 264 265 266 270 272 274 277 278 278 278 277 276 276 274 273 272 270 269 267 266 266 266 265 264 264 264 263 262 262 262 263 263 263 263 263 263 263 263 262 260 259 257 256 255 254 253 252 253 256 258 258 259 259 260 262 262 263 263 263 264 265 265 264 264 265 266 267 268
15 10 360 344 325 309 295 286 280 275 272 269 266 261 258 258 259 260 260 261 266 269 271 273 274 274 274 274 273 272 271 270 269 267 266 266 266 265 264 264 264 264 264 263 263 263 263 264 264 264 263 263 263 263 263 262 261 260 258 257 257 256 255 253 253 255 256 256 258 258 260 261 262 263 264 265 265 265 264 263 263 265 267 269 270
2 3 3 0 353 343 328 311 295 284 276 270 265 260 256 253 252 253 256 260 265 268 270 273 273 273 273 272 271 269 268 266 265 265 264 264 264 264 264 264 264 264 264 264 265 264 264 264 264 264 263 263 263 263 263 262 261 260 260 259 258 258 257 255 254 255 256 257 258 259 260 262 263 264 264 264 264 262 261 262 263 265 267 269 271
342 342 342 342 341 339 335 328 319 307 296 283 273 265 258 253 252 254 259 264 268 271 272 273 274 273 272 271 270 268 267 265 264 263 262 262 263 264 264 264 264 264 265 265 265 265 264 264 264 264 263 263 263 263 262 262 261 261 261 260 260 260 259 257 256 257 257 258 258 260 261 263 264 264 262 261 260 259 259 259 261 263 266 268 270
333 329 326 322 319 317 315 312 309 304 299 293 286 279 273 268 267 268 270 272 274 275 275 274 273 272 271 270 269 268 266 265 263 262 262 262 262 263 263 264 264 265 265 265 265 264 264 265 265 265 263 263 263 263 263 263 263 263 263 262 261 261 261 260 259 258 258 259 259 261 262 261 262 261 260 259 258 257 257 257 259 261 263 266 268
334 330 324 317 311 306 301 298 296 295 293 291 288 285 282 280 279 279 279 279 279 278 276 274 272 270 268 267 266 265 263 262 260 260 260 261 261 262 262 263 263 264 265 265 265 265 265 265 265 264 263 263 263 264 264 264 264 264 263 263 263 263 263 262 262 260 259 260 261 260 260 260 260 260 260 260 259 258 257 257 258 259 262 265 268
336 334 331 326 319 311 304 298 294 292 290 289 288 286 285 284 283 283 282 281 279 277 274 272 270 268 266 264 262 261 260 258 257 257 257 257 258 258 259 261 262 263 264 265 265 265 265 265 265 264 263 264 264 264 264 264 264 264 264 264 264 263 263 262 262 261 260 260 260 259 259 259 259 259 259 259 258 256 256 257 259 261 264 267 269
338 337 336 334 330 325 320 314 308 304 299 296 294 291 290 288 286 284 281 278 276 272 270 268 267 265 264 262 261 260 258 257 256 255 254 254 254 254 256 257 259 261 262 263 263 264 264 264 264 264 265 265 265 265 264 264 264 264 264 263 262 261 261 260 259 258 258 257 257 257 258 258 257 257 257 256 255 256 258 260 263 264 266 268 269
338 338 337 337 334 331 328 323 319 315 310 306 302 298 295 292 289 286 283 280 278 275 273 271 268 266 264 263 261 260 259 258 257 255 253 251 250 251 252 253 255 257 259 260 262 262 263 264 264 265 265 266 266 265 265 264 263 263 262 262 261 260 259 258 257 256 256 255 255 255 255 256 256 256 256 257 258 260 262 262 264 267 269 269 270
335 334 332 330 328 325 322 319 315 313 309 306 302 298 294 291 289 287 285 284 282 281 280 277 275 272 269 266 264 262 261 259 257 255 253 250 249 248 247 248 249 252 254 256 258 260 262 263 264 265 265 265 265 264 264 263 263 263 262 261 260 259 258 257 257 256 255 255 256 255 255 257 257 258 260 261 262 262 260 262 266 270 272 273 273
329 327 324 322 320 318 315 312 310 308 306 304 301 299 297 294 292 290 288 287 285 284 283 281 279 277 274 272 270 267 265 262 259 257 255 252 250 248 247 247 246 247 249 251 254 256 259 261 262 263 263 263 264 263 263 263 263 262 262 261 261 260 258 258 257 257 256 257 257 257 256 258 260 261 263 263 260 259 261 264 268 270 272 275 277
325 322 319 317 314 312 311 308 306 305 303 302 301 299 298 297 296 295 293 292 290 288 286 283 281 278 276 273 271 269 267 265 263 260 258 255 253 251 249 248 247 247 247 248 251 253 255 257 259 260 261 262 263 264 263 263 263 262 262 262 263 263 261 261 260 260 258 258 259 258 258 260 262 262 263 261 259 261 263 265 267 269 272 275 278
323 320 318 316 313 310 308 305 305 304 303 304 303 302 302 301 300 299 297 296 293 290 288 285 282 279 276 273 271 269 267 265 263 261 258 256 255 255 253 251 249 249 249 249 251 252 253 254 255 257 259 261 263 263 264 264 264 264 263 263 263 262 261 261 261 261 261 261 260 261 261 261 262 262 261 261 261 263 265 266 269 272 274 277 280
322 320 318 317 314 311 308 306 307 307 307 308 307 306 306 305 304 303 301 298 295 292 289 285 281 279 276 273 270 267 264 262 260 258 256 251 248 248 251 252 251 251 252 251 252 253 254 255 256 257 258 259 261 261 262 262 262 262 261 261 260 260 260 258 258 258 260 260 259 260 262 262 261 262 263 264 265 266 268 270 272 275 277 280 283
321 319 318 317 315 313 311 309 309 308 308 309 308 307 307 306 305 303 301 298 295 292 289 286 282 280 277 274 271 267 264 261 257 255 251 245 239 237 238 241 243 244 245 245 245 246 248 250 253 255 256 257 258 259 258 257 256 256 256 256 257 259 259 257 257 258 260 263 263 262 263 264 264 265 266 267 268 269 271 272 273 275 277 278 278
320 318 317 316 316 314 313 311 309 309 308 307 307 307 307 305 303 302 299 297 295 292 291 288 285 283 279 276 273 269 266 262 258 255 247 241 241 239 237 238 241 242 244 244 244 244 245 246 247 248 249 250 250 251 252 251 250 250 251 252 253 254 255 255 255 257 259 263 266 265 264 265 266 268 269 269 269 269 270 271 271 271 273 274 273
318 317 316 316 315 314 313 311 309 308 307 307 307 306 306 304 302 300 297 294 293 291 290 289 287 286 284 281 279 275 271 266 261 257 247 243 245 244 242 243 244 246 247 248 247 247 247 247 247 247 248 248 247 246 247 248 248 248 248 249 250 250 252 252 253 254 255 258 262 265 266 268 270 273 274 274 272 270 267 265 265 266 267 268 269
317 316 316 316 315 314 313 311 309 308 306 305 305 304 303 301 298 297 294 292 291 289 288 288 287 286 286 283 281 278 274 269 264 259 251 250 254 254 252 251 251 251 252 252 251 251 250 249 249 249 249 249 248 246 244 245 248 249 249 250 251 251 251 252 254 255 255 254 255 258 261 264 267 268 268 269 270 268 265 265 266 267 267 268 271
314 314 314 315 314 313 312 309 308 307 305 304 303 301 300 298 295 294 292 290 290 288 286 286 285 284 283 282 279 277 274 270 267 264 259 257 262 265 264 262 262 261 260 260 259 258 257 256 256 256 256 256 255 253 251 250 253 256 257 257 257 257 258 260 261 260 259 257 256 257 259 261 263 262 260 259 258 257 259 263 265 265 265 267 271
313 312 311 312 312 310 309 307 305 304 303 301 300 298 297 296 294 292 290 288 287 285 284 283 282 281 281 280 278 276 273 271 269 267 266 263 265 269 270 270 272 272 271 270 268 266 266 265 265 265 266 266 266 266 265 264 264 266 267 267 267 269 271 270 268 266 264 262 262 262 263 264 262 259 257 256 255 253 253 256 259 260 261 263 265
312 311 310 310 309 307 307 304 302 302 301 299 299 297 297 296 294 293 291 288 286 285 283 283 282 282 282 281 280 279 276 274 271 270 269 268 267 270 273 275 276 277 277 277 276 275 275 274 273 273 273 273 272 271 270 269 266 265 266 268 273 278 279 277 273 270 267 265 265 265 264 263 262 259 257 256 256 254 252 252 253 256 258 259 261
310 309 309 309 308 307 305 303 300 300 299 298 298 297 296 296 295 294 292 290 289 287 285 284 283 283 283 282 282 282 281 280 278 276 274 274 272 273 276 278 279 280 280 280 280 280 280 280 280 280 280 279 277 274 272 269 264 260 260 264 269 273 275 276 276 273 269 268 269 269 267 267 267 266 264 263 262 260 256 253 252 254 256 259 261
308 308 307 307 307 305 303 301 300 299 298 297 296 295 295 294 293 293 292 290 289 288 286 285 283 281 281 281 282 283 284 284 283 281 279 278 277 276 277 278 279 279 279 281 282 283 284 284 285 285 284 284 284 282 279 274 267 262 261 262 263 263 263 264 265 266 265 264 263 263 263 264 265 266 267 268 269 266 262 259 256 255 257 259 261
308 306 305 304 304 302 301 300 299 298 298 297 296 296 296 295 294 293 293 292 291 290 288 287 286 284 283 282 281 282 283 284 284 284 283 282 281 281 280 280 280 280 281 283 285 286 287 287 287 288 288 288 287 282 273 264 259 257 255 254 256 258 260 260 261 262 263 261 257 255 253 253 255 257 260 263 265 265 264 263 260 257 256 257 258
308 305 304 302 301 299 298 299 298 297 298 296 297 297 296 297 297 296 296 296 295 294 293 291 291 290 288 286 285 284 285 286 286 287 286 285 285 285 284 283 283 284 285 286 287 287 288 287 286 283 279 273 265 258 254 253 253 254 253 252 253 257 260 263 263 263 262 262 260 256 253 251 251 253 256 259 260 260 261 263 264 264 264 263 261
307 304 302 302 301 300 299 298 297 298 298 297 298 298 298 297 298 297 297 297 296 295 296 295 294 293 292 292 290 289 289 290 290 289 289 289 290 290 289 289 288 288 287 287 287 287 287 286 283 278 273 267 261 258 257 256 256 256 257 257 258 260 262 264 265 264 264 264 265 265 264 265 265 266 268 270 270 269 268 267 266 267 267 268 268
304 302 301 301 301 300 300 299 298 297 297 297 297 297 297 298 297 296 295 294 294 294 294 294 295 295 295 294 292 291 291 291 291 290 291 292 293 291 290 289 286 285 285 285 286 287 286 284 282 280 278 275 272 270 267 265 263 261 261 261 263 264 265 266 267 267 268 268 269 270 271 272 273 273 274 274 274 274 273 271 269 267 265 265 266
303 302 301 300 300 300 300 300 299 297 297 296 296 295 295 295 295 295 294 293 293 294 294 296 297 296 295 295 293 291 290 290 291 293 294 297 299 299 298 294 289 286 286 287 288 288 286 285 284 282 281 280 277 275 273 271 269 267 264 264 265 267 268 269 269 270 271 272 273 273 274 274 274 274 273 273 272 271 271 269 268 267 265 262 262
302 301 300 299 300 300 301 300 300 300 299 298 297 296 295 294 293 293 294 296 297 297 296 296 297 297 298 299 297 295 294 294 297 299 301 304 307 308 303 295 291 293 295 295 295 294 291 290 289 287 285 284 281 279 276 272 269 267 265 264 264 265 267 269 270 271 272 273 274 275 275 274 273 272 271 271 270 270 269 268 267 266 265 263 261
301 300 299 299 299 300 301 300 300 300 299 298 297 295 294 295 294 294 295 297 298 299 299 299 300 303 304 300 296 295 296 299 303 304 304 303 299 292 285 284 288 293 293 292 292 292 292 291 291 291 289 288 286 283 280 276 273 270 268 266 265 266 267 268 270 272 273 274 275 276 276 276 275 275 274 273 273 272 270 269 269 268 267 265 265
301 301 300 300 300 300 301 301 299 299 298 297 297 295 291 290 293 296 298 300 299 297 297 294 289 285 283 283 285 288 292 296 299 301 299 294 290 289 289 290 291 288 285 283 283 283 283 285 286 287 287 286 285 283 281 278 277 275 272 269 268 268 268 268 270 272 273 275 276 277 278 279 279 279 279 278 277 276 275 273 271 270 269 268 268
301 303 303 302 302 302 303 302 300 299 298 296 297 297 295 291 288 288 291 294 294 292 289 285 280 277 276 279 284 288 291 293 294 294 292 291 294 297 297 293 287 283 282 283 283 281 280 280 280 280 281 281 281 281 279 278 278 277 275 273 271 270 269 269 269 270 271 272 274 275 276 278 279 279 279 279 277 277 275 273 271 270 269 268 268
302 305 306 305 305 305 304 303 301 300 298 297 296 297 298 297 295 291 288 287 287 286 286 284 284 285 285 286 288 289 290 291 290 290 293 297 300 299 291 284 283 285 286 286 284 281 280 279 278 277 278 278 278 278 277 277 276 276 276 275 274 273 273 272 271 271 270 270 271 272 273 273 274 275 275 275 274 274 272 270 269 267 265 264 264
303 307 308 307 307 307 304 302 300 298 297 297 297 297 299 301 302 302 299 295 292 288 287 286 286 287 289 290 291 291 290 290 291 293 297 300 295 286 280 279 281 284 285 284 282 281 279 278 277 277 278 278 279 279 279 278 278 277 276 276 275 274 274 273 273 272 271 270 270 270 270 270 271 271 272 272 272 272 272 271 269 267 264 262 261
304 307 307 305 305 305 303 301 299 298 298 298 299 301 303 303 304 305 304 304 302 300 298 297 296 297 298 299 298 297 296 296 296 298 300 295 286 282 284 284 282 282 282 280 279 279 279 278 278 278 278 278 279 280 281 281 281 281 280 279 278 277 275 274 273 272 271 271 271 271 271 271 272 273 273 273 274 274 274 273 272 270 269 267 266
305 305 304 302 301 302 302 301 300 301 301 302 302 303 305 305 306 306 305 305 305 303 303 304 304 306 308 307 305 304 304 302 302 302 299 293 288 289 291 289 285 284 282 280 280 280 280 280 280 279 279 280 280 280 282 283 283 283 283 282 281 280 279 277 276 274 273 272 272 272 273 274 275 276 277 278 278 279 279 278 277 275 273 272 271
305 303 301 299 298 299 301 302 302 303 303 304 304 305 306 306 306 305 304 304 303 303 304 305 306 308 309 308 306 306 305 304 303 303 301 297 296 296 295 292 290 288 287 285 284 284 283 282 282 281 281 281 282 282 283 283 283 283 283 282 282 282 281 281 281 281 280 279 278 277 276 276 276 277 279 280 282 283 284 284 284 282 279 277 275
303 301 299 297 297 300 301 302 303 303 303 304 305 305 305 305 304 303 304 303 304 305 306 308 310 311 311 310 309 307 306 305 305 304 303 300 298 297 295 294 293 291 290 289 288 286 285 284 282 281 281 282 283 283 283 283 283 283 282 282 282 282 283 284 284 286 286 285 284 283 281 280 280 279 280 282 283 284 287 288 288 288 288 286 282
302 298 298 299 300 302 303 303 304 303 302 303 304 304 304 305 304 303 304 304 306 308 310 311 312 312 310 309 309 308 307 307 307 306 305 303 300 298 296 295 295 293 292 292 291 289 288 286 283 283 283 282 283 284 284 283 283 283 283 284 284 285 287 287 287 287 287 286 285 284 282 282 282 281 282 283 285 287 288 289 290 293 294 292 289
299 297 297 299 301 302 304 304 303 303 303 304 305 305 305 305 305 305 306 307 309 310 310 310 310 310 308 307 309 309 309 310 311 311 309 306 303 301 299 299 298 296 295 294 293 291 290 287 285 284 284 284 285 286 285 285 285 284 285 286 287 288 290 290 289 289 288 287 286 285 283 281 280 279 279 280 283 285 286 288 292 295 294 290 288
297 296 296 298 300 301 303 303 302 303 305 306 307 307 306 306 307 307 307 309 308 308 308 309 308 308 308 309 311 311 311 313 314 313 310 307 304 302 301 300 298 297 295 294 293 291 289 288 287 286 286 286 286 286 286 286 287 287 288 288 289 290 291 291 292 291 291 290 289 287 284 280 277 276 277 278 279 281 284 288 292 292 288 285 285
297 296 295 298 300 302 304 304 303 304 305 306 307 308 308 307 308 307 307 307 307 306 307 308 308 309 310 311 313 313 313 316 316 313 310 306 303 302 302 300 298 297 296 293 291 290 288 288 289 288 287 286 285 285 286 287 288 289 291 291 292 293 293 293 293 293 292 291 289 286 284 281 278 277 277 278 279 280 283 285 287 285 282 282 285
295 294 295 298 302 304 306 306 304 303 305 306 308 308 307 307 307 305 305 306 306 306 307 308 309 311 313 313 314 316 317 319 318 314 311 307 303 301 302 301 299 298 296 291 288 288 288 288 288 287 286 286 286 287 288 289 290 292 293 294 296 298 298 297 295 293 289 287 286 284 284 284 282 281 280 280 280 280 280 281 282 281 280 282 285
294 294 295 298 302 305 306 305 303 303 304 306 306 306 305 305 305 304 305 306 306 306 308 309 311 313 314 315 317 319 320 320 319 315 311 307 303 301 300 300 299 297 293 288 286 286 285 285 286 286 286 288 290 291 293 294 296 297 299 300 301 302 300 298 294 290 286 285 286 287 287 285 283 283 283 282 281 280 279 279 280 279 279 282 285
294 294 296 299 303 304 304 303 301 301 302 303 304 305 305 304 304 304 304 305 307 307 309 311 313 314 315 317 318 320 321 321 319 316 311 306 302 299 297 296 295 292 288 285 284 283 283 284 285 287 289 291 293 295 297 300 302 303 303 303 304 303 303 301 297 293 289 288 288 290 291 289 287 286 285 283 282 281 281 280 280 280 281 283 285
295 295 297 299 302 302 302 301 299 298 299 301 302 303 304 303 303 304 305 306 308 309 310 312 313 314 316 318 319 320 321 321 320 317 312 306 302 298 294 291 289 285 283 282 281 280 281 284 286 289 293 295 297 300 302 303 304 304 303 303 305 308 309 309 307 302 297 292 291 293 293 292 291 288 284 283 283 282 283 283 282 281 282 283 284
296 297 297 298 300 301 301 300 298 297 298 299 300 302 304 303 302 304 305 306 307 309 310 312 313 315 317 319 319 320 321 322 321 318 314 307 302 296 289 284 281 278 276 277 277 278 282 287 289 292 295 297 299 302 303 303 303 302 303 307 311 313 314 314 311 307 302 295 292 291 289 288 287 286 284 285 286 285 285 285 283 282 283 284 286
295 296 296 297 299 301 300 300 299 297 297 297 298 300 302 302 302 303 304 304 306 307 309 311 313 315 317 318 319 320 321 322 322 320 315 308 302 295 286 278 274 270 269 271 275 280 285 288 291 294 296 299 302 303 302 302 303 303 306 310 312 312 313 311 307 304 300 294 291 290 289 288 288 287 286 286 286 285 286 285 284 284 285 286 288
293 294 295 297 300 302 301 300 299 297 296 295 296 298 301 301 301 301 301 302 304 306 307 309 312 314 316 318 318 319 321 322 322 320 315 308 301 292 283 274 268 265 267 271 276 282 286 288 291 294 297 300 303 304 303 304 307 308 308 310 309 308 309 306 302 300 298 295 294 295 294 293 292 290 287 286 284 283 282 283 283 284 286 287 290
292 294 297 299 302 303 302 301 299 298 296 295 295 297 299 299 299 299 299 299 301 303 305 307 310 313 314 316 317 318 320 321 321 319 314 306 297 288 279 271 266 266 270 274 278 281 283 285 289 294 298 300 302 304 306 308 311 310 308 306 305 304 303 302 301 301 301 299 300 301 301 300 299 296 293 289 287 284 283 283 283 284 286 289 292
294 296 299 301 303 304 303 302 301 300 298 296 296 297 297 298 298 297 296 297 298 301 303 305 308 311 313 315 316 317 319 320 320 318 313 304 294 284 275 270 267 267 269 272 274 276 278 282 287 292 295 297 300 303 307 309 311 310 307 306 304 304 303 302 303 303 303 304 304 306 307 307 305 303 300 296 292 289 288 286 285 286 287 289 291